Location: Asheville, NC
(35.6000°N, 82.5500°W)
Time: 16:20:25
(UTC-05:00)

CUTE-I - Pass Details

Date: 15 February 2018
Orbit: 811 x 825 km, 98.7° (Epoch: 20 February)

Event Time Altitude Azimuth Distance (km) Brightness Sun altitude
Rises 19:21:38 0° 209° (SSW) 3,315 ? -14.7°
Reaches altitude 10° 19:24:55 10° 230° (SW) 2,389 ? -15.4°
Maximum altitude 19:28:03 16° 267° (W) 2,009 ? -16.0°
Drops below altitude 10° 19:31:13 10° 304° (NW) 2,400 ? -16.7°
Sets 19:34:33 0° 326° (NW) 3,339 ? -17.3°
